www.pogodaiklimat.ru

Погода и климат >> Архив погоды >> Россия >> Камчатский край >> Начики


АРХИВ ПОГОДЫ в Начиках

Время (UTC), дата Ветер
(напр.,м/с)
 
Видим.   Явления Облачность Т
(С)
Тd
(С)
f
(%)
Тe
(С)
Тes
(С)
Комфортность P
(гПа)
Po
(гПа)
Тmin
(С)
Tmax
(С)
R
(мм)
R24
(мм)
S
(см)
09 12.08 Ю 1 20 км 9/9 600 м
[Sc]
+13.6 +10.7 83 +14 +14 1002.2 965.3 +19.5
12 12.08 ЮЗ 1 50 км 10/10 600 м
[Sc]
+12.8 +10.9 88 +13 +13 1002.5 965.5
15 12.08 штиль 0 50 км 10/10 600 м
[Sc]
+12.1 +11.6 97 +11 +11 1003.8 966.7
18 12.08 З 1 20 км 10 баллов +11.8 +11.5 98 +12 +12 1003.8 966.7
21 12.08 С 1 4000 м 9/8 300 м
[St Ac trans Ci fib]
+13.3 +11.8 91 +13 +14 1002.4 965.5 +11.7
00 13.08 СЗ 1 50 км 9/4 1000 м
[Sc diur, vesp Ci fib]
+18.8 +12.0 65 +21 +28 комфорт 1000.9 964.8
03 13.08 ЮЗ 1 50 км 9/5 1000 м
[Sc diur, vesp Ci fib]
+22.4 +9.5 44 +24 +25 комфорт 1001.1 965.3
06 13.08 В 2 50 км 9/8 1000 м
[Sc diur, vesp]
+19.0 +12.3 65 +21 +21 комфорт 1001.4 965.3
09 13.08 В 3 50 км 10/10 1000 м
[Sc diur, vesp]
+16.3 +12.1 76 +16 +16 1002.4 965.9 +23.6
12 13.08 штиль 0 1000 м слаб. ливневой дождь 10/10 300 м
[Cb cap]
+13.4 +13.3 99 +13 +13 1004.5 967.6
15 13.08 ЮВ 1 2000 м слаб. ливневой дождь 10/10 300 м
[Cb cap]
+12.3 +12.0 98 +12 +12 1005.0 967.9
18 13.08 ЮВ 1 10 км туман местами {ливн. осадки} 10/10 300 м
[Sc diur, vesp]
+11.7 +11.6 99 +11 +11 1005.8 968.6
21 13.08 штиль 0 1000 м туман местами 9/8 300 м
[St Ac trans]
+13.2 +12.8 97 +13 +13 1006.2 969.2 +11.1 12
00 14.08 ЮВ 2 20 км 9/6 300 м
[St Ac trans Ci fib]
+18.8 +11.3 62 +20 +23 1005.5 969.2
03 14.08 В 2 50 км {ливн. осадки} 9/8 1000 м
[Cb calv Ac trans Ci fib]
+19.0 +11.7 63 +20 +22 1005.4 969.1
06 14.08 СЗ 1 10 км слаб. ливневой дождь 10/9 300 м
[Cb cap Ci fib]
+15.7 +12.3 80 +16 +17 1007.1 970.3
09 14.08 ЮВ 1 50 км {ливн. осадки} 10/8 300 м
[St Ac trans Ci fib]
+14.6 +12.7 88 +15 +15 1008.4 971.5 +19.7 1
12 14.08 ЮВ 2 4000 м туман местами {ливн. осадки} 9/9 300 м
[St]
+12.7 +12.6 99 +12 +12 1009.7 972.5
15 14.08 З 1 4000 м туман местами 10/10 300 м
[St]
+12.1 +11.9 99 +12 +12 1010.1 972.8
18 14.08 штиль 0 2000 м туман местами 10/10 300 м
[St]
+11.9 +11.8 99 +11 +11 1010.6 973.3
21 14.08 штиль 0 4000 м туман местами 10/10 300 м
[Sc diur, vesp]
+14.1 +12.7 91 +14 +14 1011.0 973.9 +11.9
00 15.08 С 2 50 км 9/8 600 м
[Sc diur, vesp Ci fib]
+17.7 +12.2 70 +18 +20 1009.9 973.3
03 15.08 Ю 2 50 км в посл. час ливневой дождь 9/8 600 м
[Sc diur, vesp Ci fib]
+18.1 +12.9 72 +19 +21 1008.7 972.2
06 15.08 ЮЗ 1 4000 м ливневой дождь 10/10 300 м
[Cb cap]
+15.4 +13.9 91 +16 +16 1010.2 973.3
09 15.08 Ю 1 4000 м сильн. ливневой дождь 10/8 300 м
[Cb cap Ac As]
+14.2 +13.6 96 +14 +14 1010.3 973.3 +19.8 4
12 15.08 штиль 0 4000 м туман местами {ливн. осадки} 10/10 300 м
[Sc diur, vesp]
+12.1 +11.8 98 +11 +11 1009.3 972.0
15 15.08 В 1 500 м туман 10/8 300 м
[Sc diur, vesp Ac cast]
+10.5 +10.4 99 +10 +10 1008.6 971.1
18 15.08 штиль 0 4000 м туман местами 8/5 200 м
[Sc diur, vesp Ci fib]
+5.6 +5.6 100 +4 +4 1008.5 970.3
21 15.08 СЗ 2 50 км в посл. час туман 8/4 1000 м
[Sc Ac As Ci fib]
+12.0 +11.7 98 +11 +12 1006.5 969.3 +5.4 0.7
00 16.08 СЗ 4 50 км {туман} 8/5 1000 м
[Sc Ac trans]
+17.6 +8.4 55 +17 +20 1004.1 967.7
03 16.08 СЗ 3
{11}
50 км 9/6 1000 м
[Sc Ac As Ci fib]
+17.8 +7.8 52 +18 +19 1003.1 966.7
06 16.08 СЗ 4
{11}
50 км 9/6 1000 м
[Sc Ac lent]
+16.1 +6.8 54 +15 +16 1001.9 965.3
09 16.08 СЗ 2 50 км 9/8 1000 м
[Sc Ac lent Ci fib]
+12.5 +7.5 72 +12 +12 1002.3 965.3 +19.3
12 16.08 З 1 50 км 9/8 1000 м
[Sc Ac trans]
+9.8 +8.4 91 +9 +9 1004.1 966.7
15 16.08 З 1 50 км 9/8 1000 м
[Sc Ac trans]
+9.1 +6.4 83 +9 +9 1004.3 966.7
18 16.08 СЗ 2 50 км 9/8 1000 м
[Sc Ac As]
+8.0 +6.1 88 +6 +6 1004.4 966.7
21 16.08 СЗ 2 50 км 9/8 1000 м
[Sc Ac trans Ci sp]
+10.8 +7.0 77 +10 +10 1004.2 966.9 +7.6
00 17.08 С 2 50 км 8/6 1000 м
[Cu Sc Ac trans]
+14.9 +8.1 64 +15 +18 1003.4 966.6
03 17.08 СЗ 3 50 км 9 баллов +15.0 +8.0 63 +14 +15 1004.8 968.0
06 17.08 СЗ 1 50 км 9/8 1000 м
[Sc Ac trans]
+14.4 +8.6 68 +15 +15 1006.2 969.3
09 17.08 штиль 0 50 км 9/8 1000 м
[Sc Ac trans]
+11.5 +9.1 85 +11 +11 1006.4 969.1 +16.0
12 17.08 ЮЗ 1 50 км местами туман поземный 10/8 600 м
[Sc Ac As]
+10.0 +9.3 95 +9 +9 1007.8 970.3
15 17.08 СЗ 1 50 км 9/9 600 м
[Sc]
+10.2 +8.3 88 +10 +10 1009.6 972.0
18 17.08 В 3 50 км 9/9 600 м
[Sc]
+12.1 +5.7 65 +11 +11 1010.7 973.3
21 17.08 С 1 50 км 10/10 300 м
[Sc diur, vesp]
+11.2 +8.1 81 +11 +11 1011.3 973.7 +9.8
00 18.08 СВ 3 50 км 10/10 1000 м
[Sc diur, vesp]
+13.3 +6.7 64 +12 +12 1012.1 974.8
03 18.08 С 2 50 км 10 баллов +14.9 +9.3 69 +15 +15 1013.1 976.0
06 18.08 С 1 50 км 9 баллов +15.3 +9.2 67 +16 +16 1014.4 977.3
09 18.08 Ю 2 20 км слаб. ливневой дождь 10/10 300 м
[Cb cap]
+12.7 +9.6 81 +12 +12 1014.7 977.2 +16.3
12 18.08 ЮВ 2 4000 м туман местами {ливн. осадки} 10/10 300 м
[Sc diur, vesp]
+11.0 +9.6 91 +10 +10 1016.9 979.1
15 18.08 ЮЗ 2 4000 м туман местами 10/10 300 м
[Sc diur, vesp]
+10.4 +9.5 94 +9 +9 1019.2 981.3
18 18.08 Ю 1 4000 м туман местами 10/10 300 м
[Sc diur, vesp]
+9.4 +9.3 99 +9 +9 1018.9 980.9
21 18.08 штиль 0 50 км в посл. час туман 9/8 300 м
[St Ac trans]
+11.5 +10.8 95 +11 +11 1019.0 981.3 +9.3 0.1
00 19.08 С 1 50 км {туман} 9/8 600 м
[Sc Ac trans]
+15.4 +9.8 69 +16 +18 1018.4 981.2
03 19.08 З 2 50 км {ливн. осадки} 9/9 1000 м
[Sc]
+17.3 +9.6 61 +18 +19 1017.6 980.6
06 19.08 С 1 50 км 10 баллов +16.1 +11.0 72 +17 +17 1018.4 981.3

 

Местоположение метеостанции Начики (Камчатский край, Россия): широта 53.12 долгота 157.70 высота над уровнем моря 317 м.

В архиве по умолчанию представлена погода в Начиках за последнюю неделю. Архивные данные за месяц целиком и за предыдущие месяцы, начиная с января 2011 года, Вы можете получить, выбрав интересующий диапазон дат из раскрывающегося списка и нажав кнопку "Ввод!".


*Определитесь, кто Вы:
робот инопланетянин человек

Внимание! Время в таблицах - всемирное. Для получения местного времени необходимо прибавить поправку, которая равна 12 ч.

Смотрите также архив погоды в соседних городах и на ближайших метеорологических станциях:

Погода в Сосновке (Камчатский край, Россия) (40 км)
Погода в Петропавловск-Камч. 2 (Камчатский край, Россия) (54 км)
Погода в Петропавловск-Камчатском (Камчатский край, Россия) (66 км)
Погода в Петропавловском Маяке (Камчатский край, Россия) (72 км)
Погода в Большерецке (Камчатский край, Россия) (99 км)
Погода в Пущино (Камчатский край, Россия) (120 км)
Погода в Водопадной (Камчатский край, Россия) (146 км)
Погода в Соболево (Камчатский край, Россия) (177 км)
Погода в Мильково (Камчатский край, Россия) (181 км)
Погода в Семячике (Камчатский край, Россия) (183 км)

Пояснения к столбцам:

Ветер - указаны скорость ветра в м/с - средняя за 10 мин, порывы в срок и между сроками (в фигурных скобках) и направление, откуда дует ветер: С - северный, СВ - северо-восточный, В - восточный, ЮВ - юго-восточный, Ю - южный, ЮЗ - юго-западный, З - западный, СЗ - северо-западный.
Видимость - горизонтальная дальность видимости в метрах или километрах. При видимости от 1 до 10 км при отсутствии осадков обычно наблюдается дымка, при ухудшении видимости до 1 км и менее - туман. В сухую погоду видимость может ухудшаться дымом, пылью или мглою.
Явления - указаны атмосферные явления, наблюдавшиеся в срок или в последний час перед сроком; фигурными скобками обозначены явления, наблюдавшиеся между сроками (за 1-3 часа до срока); квадратными скобками обозначены град или гололедные отложения с указанием их диаметра в мм.
Облачность - указаны через наклонную черту общая и нижняя облачность в баллах и высота нижней границы облаков в метрах; квадратными скобками обозначены формы облаков: Ci - перистые, Cs - перисто-слоистые, Cc - перисто-кучевые, Ac - высококучевые, As - высокослоистые, Sc - слоисто-кучевые, Ns - слоисто-дождевые, Cu - кучевые, Cb - кучево-дождевые. Подробнее классификацию облаков см. в Атласе облаков (PDF).
T - Температура воздуха - температура, измеренная на высоте 2 м над землей.
Td - Температура точки росы - температура, при понижении до которой содержащийся в воздухе водяной пар достигнет насыщения.
f - Относительная влажность воздуха - влажноcть воздуха, измеренная на высоте 2 м над землей.
Te - Эффективная температура - температура, которую ощущает одетый по сезону человек в тени. Характеристика душности погоды. При расчете учитывается влияние влажности воздуха и скорости ветра на теплоощущения человека.
Tes - Эффективная температура на солнце - температура, которую ощущает человек, с поправкой на солнечный нагрев. Характеристика знойности погоды. Зависит от высоты солнца над горизонтом, облачности и скорости ветра. Ночью, в пасмурную погоду, а также при ветре 12 м/с и более поправка равна нулю.
P - Атмосферное давление - приведенное к уровню моря атмосферное давление.
Po - Атмосферное давление - измеренное на уровне метеостанции атмосферное давление.
Tmin - Минимальная температура - минимум температуры воздуха на высоте 2 м над землей.
Tmax - Максимальная температура - максимум температуры воздуха на высоте 2 м над землей.
R - Количество осадков - Количество выпавших осадков за период времени, мм. При наведении курсора мыши на число - период времени, за который выпало указанное количество осадков.
R24 - Количество осадков - Количество выпавших осадков за 24 часа, мм.
S - Снежный покров - Высота снежного покрова, см. При наведении курсора мыши на число - состояние снежного покрова и степень покрытия местности в баллах.